Regional Weather Roundup
Issued by NWS

Home | Current Version | Previous Version | Text Only | Print | Product List | Glossary On
Versions: 1 2 3 4 5 6 7 8 9 10 11 12 13 14 15 16 17 18 19 20 21 22 23 24 25 26 27 28 29 30 31 32 33 34 35 36 37 38 39 40 41 42 43 44 45 46 47 48 49 50
000
ASUS43 KFSD 160510
RWRSD

WEATHER ROUNDUP FOR SOUTH DAKOTA
NATIONAL WEATHER SERVICE SIOUX FALLS SD
1200 AM CDT MON SEP 16 2019

NOTE: "FAIR" INDICATES FEW OR NO CLOUDS BELOW 12,000 FEET WITH NO
SIGNIFICANT WEATHER AND/OR OBSTRUCTIONS TO VISIBILITY.


SDZ001>005-009-010-012>017-160600-
NORTHWEST AND NORTH CENTRAL SOUTH DAKOTA

CITY           SKY/WX    TMP DP  RH WIND       PRES   REMARKS
BUFFALO          N/A     72  32  23 SE3       29.78F
FAITH            N/A     67  56  67 SE14      29.81S
MOBRIDGE       CLEAR     71  62  73 SE10      29.79F
$$

SDZ012>016-024>037-041>051-057-063-072>074-160600-
SOUTHWEST AND SOUTH CENTRAL SOUTH DAKOTA

CITY           SKY/WX    TMP DP  RH WIND       PRES   REMARKS
RAPID CTY ARPT PTCLDY    62  45  53 CALM      29.87S
PIERRE         CLEAR     72  62  71 E12       29.83F
CUSTER         MOCLDY    57  36  45 NW3       30.05F
ELLSWORTH AFB  HAZE      69  45  41 S12       29.86S VSB 1/4
PHILIP         CLEAR     74  61  63 S15       29.81S
PINE RIDGE     PTCLDY    77  51  40 S17G28    29.90F
SPEARFISH      FAIR      70  37  30 S14       29.89S
WINNER         FAIR      76  62  62 S16G28    29.88F
$$

SDZ004>011-016>023-039-040-160600-
NORTHEAST SOUTH DAKOTA

CITY           SKY/WX    TMP DP  RH WIND       PRES   REMARKS
ABERDEEN       CLEAR     70  64  81 S14       29.86F
WATERTOWN      CLEAR     67  65  93 S9        29.95S
BROOKINGS      CLEAR     70  67  90 SE14      29.98S
SISSETON         N/A     68  64  87 S9        29.89F
$$

SDZ017-020-022-023-036>040-048>070-160600-
SOUTHEAST SOUTH DAKOTA

CITY           SKY/WX    TMP DP  RH WIND       PRES   REMARKS
SIOUX FALLS    PTCLDY    71  64  78 SE7       29.98F
HURON          CLEAR     71  65  81 SE15G23   29.89F
CHAMBERLAIN    CLEAR     72  69  90 SE8       29.88F
MADISON        FAIR      66  66 100 SE9       29.97F
MITCHELL       FAIR      72  65  78 SE13      29.92S
YANKTON        CLEAR     69  63  81 SE5       29.97S
$$

ABBREVIATIONS USED IN REMARKS
   TC - TEMPERATURE IN CELSIUS
  WCI - WIND CHILL INDEX
   HX - HEAT INDEX
  VSB - VISIBILITY





USA.gov is the U.S. government's official web portal to all federal, state and local government web resources and services.